EST,Max TemperatureF,Mean TemperatureF,Min TemperatureF,Max Dew PointF,MeanDew PointF,Min DewpointF,Max Humidity, Mean Humidity, Min Humidity, Max Sea Level PressureIn, Mean Sea Level PressureIn, Min Sea Level PressureIn, Max VisibilityMiles, Mean VisibilityMiles, Min VisibilityMiles, Max Wind SpeedMPH, Mean Wind SpeedMPH, Max Gust SpeedMPH,PrecipitationIn, CloudCover, Events, WindDirDegrees
2012-2-1,49,39,29,39,34,26,92,81,69,30.01,29.84,29.72,10,9,2,21,4,28,0.08,8,Rain-Snow,262
2012-2-2,33,23,13,30,17,8,89,79,68,30.35,30.15,29.97,10,8,2,20,7,24,T,7,Snow,333
2012-2-3,27,18,8,24,14,6,92,74,55,30.48,30.37,30.28,10,9,3,13,2,17,T,5,Snow,325
2012-2-4,27,17,7,25,16,5,92,71,50,30.33,30.24,30.17,10,7,1,23,6,29,0.02,5,Snow,309
2012-2-5,26,13,0,15,7,-4,95,73,50,30.27,30.18,30.06,10,10,10,15,3,23,0.00,3,,269
2012-2-6,46,34,21,25,21,14,71,56,40,30.03,29.91,29.80,10,10,10,17,6,30,0.00,2,,247
2012-2-7,38,24,10,27,17,3,75,65,55,30.32,30.08,29.91,10,10,10,18,10,25,0.00,4,,310
2012-2-8,32,18,4,14,6,1,88,59,30,30.35,30.22,30.01,10,10,10,9,2,12,0.00,0,,184
2012-2-9,38,26,13,15,12,9,80,58,35,30.10,30.06,30.02,10,10,8,15,3,21,0.00,0,,243
2012-2-10,40,27,13,18,14,10,88,59,30,30.09,30.01,29.91,10,10,9,14,4,20,0.00,1,,232
2012-2-11,31,19,6,23,15,0,88,73,58,29.90,29.80,29.73,10,9,5,14,5,18,T,6,Snow,328
2012-2-12,10,6,2,1,-4,-8,76,66,55,29.88,29.80,29.69,10,10,5,23,9,30,T,5,Snow,316
2012-2-13,31,20,9,16,10,1,88,62,36,29.95,29.83,29.72,10,7,1,20,5,28,0.01,6,Snow,315
2012-2-14,37,31,24,23,18,16,69,55,40,30.11,30.05,29.96,10,10,3,13,6,17,0.00,5,,188
2012-2-15,39,33,26,31,27,21,89,74,59,30.30,30.20,30.12,10,10,5,7,0,9,T,8,Snow,325
2012-2-16,40,36,31,32,29,25,100,80,59,30.31,30.15,29.95,10,8,4,14,5,17,0.02,8,Snow,176
2012-2-17,39,36,32,34,28,20,96,72,48,29.95,29.91,29.86,10,9,2,17,7,23,0.03,8,Rain-Snow,213
2012-2-18,36,32,28,25,21,17,85,66,47,30.04,29.93,29.84,10,9,3,16,8,24,T,7,Snow,294
2012-2-19,31,25,18,18,16,12,80,67,53,30.14,30.09,30.03,10,10,10,18,7,24,0.00,5,,310
2012-2-20,27,23,15,16,14,13,77,66,55,30.29,30.18,30.05,10,10,10,15,6,23,0.00,1,,328
2012-2-21,36,23,9,28,19,8,96,70,44,30.38,30.07,29.78,10,8,1,18,6,24,0.02,3,Snow,179
2012-2-22,45,38,31,34,30,21,96,70,43,29.79,29.58,29.44,10,8,0,21,9,31,0.11,7,Fog-Rain-Snow,195
2012-2-23,37,31,24,34,31,22,100,82,64,29.81,29.47,29.36,10,6,0,18,5,24,0.03,7,Fog-Rain-Snow,322
2012-2-24,32,28,23,31,28,22,100,86,72,29.81,29.50,29.19,10,4,0,17,5,22,0.33,7,Fog-Rain-Snow,168
2012-2-25,34,26,17,30,22,12,100,86,72,29.90,29.36,29.11,10,2,0,22,12,36,0.02,8,Fog-Snow,279
2012-2-26,23,14,5,12,3,-2,80,58,36,30.49,30.27,29.84,10,9,3,25,10,39,T,1,Snow,308
2012-2-27,40,21,1,32,17,-1,96,73,50,30.49,30.21,30.00,10,9,2,16,4,31,0.01,6,Rain-Snow,225
2012-2-28,32,20,8,30,20,8,92,74,55,30.46,30.25,30.06,10,5,1,22,7,30,0.04,6,Snow,311
2012-2-29,29,18,7,25,18,7,100,77,53,30.45,30.17,29.95,10,7,2,12,2,14,0.04,8,Snow,126